Weather in Dobroye

Ukraine / Mykolaiv District     47°18′37″N   32°27′20″E
temp.,
°C
wind,
m/s
gust,
m/s
humid.,
%
clouds,
%
prec.,
mm/h
press.,
hPa
HPBL,
m
17 august, wed
wed1700:00+21ssw23840 0.1 100948
03:00+20sse22900 0.1 100924
06:00+20sse338812 0.0 100944
09:00+26s33575 0.0 1009577
12:00+30ssw333968 0.0 10082260
15:00+29sse234499 0.6 1008420
18:00+27se555494 0.8 1008381
21:00+23se117183 4.1 100815
18 august, thu
thu1800:00+22ese11737 0.1 100811
03:00+21e11775 0.1 100811
06:00+20ne11815 0.0 100811
09:00+25e11625 0.0 1008446
12:00+30ssw014474 0.0 10081498
15:00+32ne113692 0.1 10072550
18:00+30sw334099 0.1 1007696
21:00+25se576128 0.3 1008206
19 august, fri
fri1900:00+24sse1267100 0.0 100817
03:00+23e116973 0.0 100811
06:00+22n11713 0.0 100811
09:00+27n21510 0.0 1009446
12:00+32ne22360 0.0 10092083
15:00+34ene222899 0.0 10083260
18:00+32nne353383 0.1 1008303
21:00+27ese475058 0.4 1009130
20 august, sat
sat2000:00+24n35610 0.6 101074
03:00+23ese116360 0.6 101011
06:00+21ne34740 0.0 101175
09:00+26ene45600 0.0 1011561
12:00+31ene44420 0.0 10111407
15:00+33ene33330 0.0 10102208
18:00+32ne333342 0.0 10092358
21:00+28ene354429 0.0 1010137
21 august, sun
sun2100:00+25e12621 0.0 1011111
03:00+23e22710 0.0 101019
06:00+22ne22730 0.0 101134
09:00+27e34510 0.0 1010543
12:00+31ese43410 0.0 10101829
15:00+33ese543386 0.1 10092852
18:00+31e78380 0.3 10091415
21:00+24e236025 1.4 101066